M I D A S
Marine Information and Data Acquisition System
Tripno 1809 of the Zeeleeuw from 2009-11-30 07:32:40 to 2009-11-30 12:04:37
Back to CruiseResearch ActivitiesStationsMapUnderway DataData graphs

EquipmentUnitsComments
TimeDGPSUTC
LatitudeDGPSDM.mWGS84
LongitudeDGPSDM.mWGS84
SpeedMeteo Stationm/sRelative wind speed
DirectionMeteo StationdegRelative wind direction
TemperatureMeteo Stationdeg CelciusAir temperature
PressureMeteo StationPaAtmospheric pressure
HumidityMeteo Station%Relative humidity
Missing or incorrect values are displayed as -999
Metereological data collected by the RV Zeeleeuw from 2009-11-30 07:25:11 to 2009-12-07 12:04:36
                                                                                    Next 1000 lines
Time Latitude Longitude Speed Direction Temperature Pressure Humidity
2009-11-30 07:25:21 51°13.662 2°55.96 2.3 347 4.9 99320 40
2009-11-30 07:25:25 51°13.662 2°55.96 1.4 343 4.9 99320 39
2009-11-30 07:25:31 51°13.663 2°55.961 0.7 345 4.9 99320 39
2009-11-30 07:25:36 51°13.663 2°55.961 2.6 350 5 99320 39
2009-11-30 07:25:41 51°13.663 2°55.961 2 350 5 99320 39
2009-11-30 07:25:46 51°13.662 2°55.961 2.2 342 4.9 99320 38
2009-11-30 07:25:51 51°13.662 2°55.961 3.1 345 4.9 99320 38
2009-11-30 07:25:56 51°13.662 2°55.961 3.4 281 4.9 99320 38
2009-11-30 07:26:01 51°13.662 2°55.961 3.2 353 4.9 99320 38
2009-11-30 07:26:06 51°13.662 2°55.961 3.5 1 5 99320 38
2009-11-30 07:26:11 51°13.662 2°55.961 3.3 360 5 99320 38
2009-11-30 07:26:16 51°13.663 2°55.961 3.5 355 5 99320 36
2009-11-30 07:26:21 51°13.663 2°55.961 1 353 5 99320 36
2009-11-30 07:26:25 51°13.662 2°55.961 3.2 351 5 99320 40
2009-11-30 07:26:31 51°13.662 2°55.96 2.7 346 5 99320 40
2009-11-30 07:26:36 51°13.661 2°55.96 3.6 352 5 99320 37
2009-11-30 07:26:41 51°13.661 2°55.96 3.4 350 5 99320 39
2009-11-30 07:26:46 51°13.661 2°55.96 3.4 354 5 99320 39
2009-11-30 07:26:51 51°13.661 2°55.96 2.9 352 5 99320 39
2009-11-30 07:26:56 51°13.66 2°55.96 2.3 4 5 99320 36
2009-11-30 07:27:01 51°13.661 2°55.959 1.7 3 5 99320 36
2009-11-30 07:27:05 51°13.661 2°55.956 0.2 5 5 99320 40
2009-11-30 07:27:11 51°13.663 2°55.952 0.1 359 5 99320 40
2009-11-30 07:27:16 51°13.664 2°55.947 0.1 9 5 99320 39
2009-11-30 07:27:21 51°13.666 2°55.942 0.1 17 5 99320 39
2009-11-30 07:27:27 51°13.668 2°55.934 0.1 13 5 99320 38
2009-11-30 07:27:33 51°13.671 2°55.925 -999 12 5 99320 38
2009-11-30 07:27:39 51°13.673 2°55.915 2.1 15 5 99320 38
2009-11-30 07:27:45 51°13.675 2°55.904 1.2 6 5 99320 38
2009-11-30 07:27:49 51°13.677 2°55.896 0.8 44 5 99320 38
2009-11-30 07:27:55 51°13.679 2°55.886 0.7 26 5 99320 36
2009-11-30 07:28:00 51°13.681 2°55.877 0.8 28 5 99320 36
2009-11-30 07:28:05 51°13.682 2°55.868 0.2 16 5 99320 36
2009-11-30 07:28:09 51°13.683 2°55.862 0.1 16 5 99330 38
2009-11-30 07:28:15 51°13.685 2°55.852 -999 28 5 99330 38
2009-11-30 07:28:20 51°13.686 2°55.844 -999 27 5 99320 37
2009-11-30 07:28:25 51°13.688 2°55.836 -999 30 5 99320 37
2009-11-30 07:28:30 51°13.689 2°55.828 -999 5 5 99320 38
2009-11-30 07:28:35 51°13.691 2°55.82 -999 17 5 99320 38
2009-11-30 07:28:40 51°13.692 2°55.813 -999 26 5 99330 38
2009-11-30 07:28:45 51°13.693 2°55.806 -999 41 5 99330 38
2009-11-30 07:28:49 51°13.694 2°55.8 0.1 40 5 99330 38
2009-11-30 07:28:55 51°13.695 2°55.792 1.3 31 5 99330 38
2009-11-30 07:29:00 51°13.696 2°55.786 1 28 5 99330 38
2009-11-30 07:29:04 51°13.696 2°55.781 2.4 23 5 99330 38
2009-11-30 07:29:09 51°13.697 2°55.774 2 6 5 99330 38
2009-11-30 07:29:14 51°13.697 2°55.768 2.4 29 5 99330 38
2009-11-30 07:29:19 51°13.698 2°55.763 0.5 24 5 99320 40
2009-11-30 07:29:24 51°13.698 2°55.758 1.4 25 5 99320 40
2009-11-30 07:29:29 51°13.698 2°55.754 0.2 28 5 99330 36
2009-11-30 07:29:34 51°13.699 2°55.751 0.3 31 5 99330 36
2009-11-30 07:29:39 51°13.699 2°55.749 0.1 24 5 99330 37
2009-11-30 07:29:44 51°13.699 2°55.748 0.1 24 5 99330 37
2009-11-30 07:29:48 51°13.7 2°55.747 0.1 26 5 99330 38
2009-11-30 07:29:53 51°13.7 2°55.746 0.3 35 5 99330 38
2009-11-30 07:29:58 51°13.701 2°55.745 0.2 32 5 99330 38
2009-11-30 07:30:03 51°13.701 2°55.745 0.1 27 5 99330 38
2009-11-30 07:30:08 51°13.702 2°55.745 0.1 29 5 99330 36
2009-11-30 07:30:13 51°13.703 2°55.744 0.9 27 5 99330 36
2009-11-30 07:30:18 51°13.703 2°55.744 1.2 38 5 99330 38
2009-11-30 07:30:23 51°13.703 2°55.743 0.6 25 5 99330 38
2009-11-30 07:30:28 51°13.703 2°55.742 0.1 37 5 99330 38
2009-11-30 07:30:33 51°13.703 2°55.74 0.1 42 5 99330 38
2009-11-30 07:30:37 51°13.703 2°55.739 0.9 37 5 99330 38
2009-11-30 07:30:43 51°13.702 2°55.737 1 36 5 99330 38
2009-11-30 07:30:47 51°13.701 2°55.735 0.9 78 5 99330 38
2009-11-30 07:30:52 51°13.7 2°55.734 1.4 37 5 99330 38
2009-11-30 07:30:57 51°13.698 2°55.732 1.2 40 5 99330 38
2009-11-30 07:31:02 51°13.697 2°55.731 0.8 41 5 99330 38
2009-11-30 07:31:07 51°13.696 2°55.729 0.9 42 5 99330 38
2009-11-30 07:31:12 51°13.695 2°55.728 0.5 39 5 99330 38
2009-11-30 07:31:17 51°13.696 2°55.728 0.1 27 5 99330 37
2009-11-30 07:31:22 51°13.697 2°55.728 0.1 32 5 99330 37
2009-11-30 07:31:27 51°13.699 2°55.727 -999 78 5 99330 38
2009-11-30 07:31:32 51°13.701 2°55.726 -999 45 5 99330 38
2009-11-30 07:31:37 51°13.703 2°55.726 -999 44 5 99330 38
2009-11-30 07:31:41 51°13.705 2°55.725 -999 34 5 99330 38
2009-11-30 07:31:47 51°13.709 2°55.723 -999 77 5 99330 38
2009-11-30 07:31:52 51°13.714 2°55.72 -999 34 5 99330 38
2009-11-30 07:31:56 51°13.718 2°55.718 -999 77 5 99330 39
2009-11-30 07:32:01 51°13.723 2°55.714 -999 34 5 99330 39
2009-11-30 07:32:06 51°13.729 2°55.71 -999 283 5 99330 38
2009-11-30 07:32:11 51°13.735 2°55.705 -999 339 5 99330 38
2009-11-30 07:32:16 51°13.742 2°55.7 -999 283 5 99330 37
2009-11-30 07:32:21 51°13.749 2°55.694 -999 316 5 99330 37
2009-11-30 07:32:25 51°13.755 2°55.689 -999 283 5 99340 38
2009-11-30 07:32:31 51°13.765 2°55.681 -999 334 5 99340 38
2009-11-30 07:32:36 51°13.773 2°55.675 -999 283 5 99330 38
2009-11-30 07:32:41 51°13.781 2°55.668 -999 334 5 99330 38
2009-11-30 07:32:46 51°13.79 2°55.661 -999 332 5 99330 38
2009-11-30 07:32:51 51°13.799 2°55.655 -999 333 5 99330 38
2009-11-30 07:32:56 51°13.807 2°55.647 -999 283 5 99330 38
2009-11-30 07:33:01 51°13.816 2°55.641 -999 315 5 99330 38
2009-11-30 07:33:06 51°13.826 2°55.633 -999 283 5.1 99330 38
2009-11-30 07:33:11 51°13.835 2°55.626 -999 331 5.1 99330 38
2009-11-30 07:33:16 51°13.844 2°55.619 -999 283 5.1 99330 38
2009-11-30 07:33:21 51°13.854 2°55.612 -999 332 5.1 99330 38
2009-11-30 07:33:26 51°13.863 2°55.605 -999 283 5.1 99340 38
2009-11-30 07:33:31 51°13.873 2°55.598 -999 330 5.1 99340 38
2009-11-30 07:33:36 51°13.883 2°55.589 -999 283 5.1 99340 38
2009-11-30 07:33:41 51°13.892 2°55.583 -999 330 5.1 99340 38
2009-11-30 07:33:46 51°13.902 2°55.575 -999 283 5.1 99330 38
2009-11-30 07:33:51 51°13.912 2°55.568 -999 331 5.1 99330 38
2009-11-30 07:33:56 51°13.922 2°55.56 -999 283 5.1 99340 38
2009-11-30 07:34:01 51°13.932 2°55.552 -999 335 5.1 99340 38
2009-11-30 07:34:06 51°13.943 2°55.543 -999 283 5.1 99330 38
2009-11-30 07:34:11 51°13.954 2°55.535 -999 322 5.1 99330 38
2009-11-30 07:34:16 51°13.965 2°55.527 -999 283 5.1 99330 38
2009-11-30 07:34:21 51°13.976 2°55.519 -999 326 5.1 99330 38
2009-11-30 07:34:25 51°13.985 2°55.512 -999 283 5.1 99340 38
2009-11-30 07:34:31 51°13.998 2°55.502 -999 324 5.1 99340 38
2009-11-30 07:34:36 51°14.009 2°55.494 -999 283 5.1 99340 38
2009-11-30 07:34:41 51°14.02 2°55.485 -999 325 5.1 99340 38
2009-11-30 07:34:45 51°14.029 2°55.479 -999 325 5.1 99340 38
2009-11-30 07:34:51 51°14.043 2°55.469 -999 326 5.1 99340 38
2009-11-30 07:34:56 51°14.054 2°55.461 -999 283 5.1 99340 37
2009-11-30 07:35:01 51°14.066 2°55.453 -999 326 5.1 99340 37
2009-11-30 07:35:05 51°14.075 2°55.446 -999 283 5.1 99340 38
2009-11-30 07:35:11 51°14.088 2°55.436 -999 327 5.1 99340 38
2009-11-30 07:35:16 51°14.1 2°55.427 -999 283 5.1 99330 38
2009-11-30 07:35:21 51°14.111 2°55.418 -999 319 5.1 99330 38
2009-11-30 07:35:26 51°14.123 2°55.41 -999 283 5.1 99340 38
2009-11-30 07:35:31 51°14.134 2°55.401 -999 320 5.1 99340 38
2009-11-30 07:35:36 51°14.146 2°55.392 -999 283 5.1 99340 38
2009-11-30 07:35:41 51°14.157 2°55.382 -999 324 5.1 99340 38
2009-11-30 07:35:46 51°14.168 2°55.373 -999 283 5.1 99340 38
2009-11-30 07:35:51 51°14.179 2°55.363 -999 34 5.1 99340 38
2009-11-30 07:35:56 51°14.19 2°55.352 -999 283 5.1 99340 38
2009-11-30 07:36:01 51°14.2 2°55.34 -999 34 5.1 99340 38
2009-11-30 07:36:05 51°14.208 2°55.33 -999 283 5.1 99340 38
2009-11-30 07:36:11 51°14.22 2°55.316 -999 34 5.1 99340 38
2009-11-30 07:36:16 51°14.23 2°55.303 -999 283 5 99340 38
2009-11-30 07:36:21 51°14.239 2°55.289 -999 34 5 99340 38
2009-11-30 07:36:25 51°14.247 2°55.277 -999 283 5.1 99340 38
2009-11-30 07:36:31 51°14.257 2°55.26 -999 326 5.1 99340 38
2009-11-30 07:36:36 51°14.266 2°55.245 0.7 287 5.1 99340 38
2009-11-30 07:36:41 51°14.274 2°55.229 0.9 243 5.1 99340 38
2009-11-30 07:36:46 51°14.283 2°55.214 0.7 20 5.1 99340 38
2009-11-30 07:36:51 51°14.291 2°55.197 0.1 34 5.1 99340 38
2009-11-30 07:36:56 51°14.299 2°55.181 0.1 277 5.1 99340 37
2009-11-30 07:37:01 51°14.308 2°55.165 1.3 31 5.1 99340 37
2009-11-30 07:37:05 51°14.314 2°55.151 1.5 280 5.1 99340 38
2009-11-30 07:37:11 51°14.324 2°55.131 0.9 30 5.1 99340 38
2009-11-30 07:37:16 51°14.332 2°55.115 0.9 284 5.1 99340 38
2009-11-30 07:37:21 51°14.341 2°55.098 0.2 318 5.1 99340 38
2009-11-30 07:37:25 51°14.348 2°55.085 0.1 283 5.1 99340 37
2009-11-30 07:37:31 51°14.359 2°55.066 -999 317 5.1 99340 37
2009-11-30 07:37:36 51°14.369 2°55.05 -999 283 5.1 99340 37
2009-11-30 07:37:41 51°14.379 2°55.036 -999 316 5.1 99340 37
2009-11-30 07:37:45 51°14.387 2°55.024 1.4 283 5.1 99340 38
2009-11-30 07:37:51 51°14.4 2°55.008 0.3 32 5.1 99340 38
2009-11-30 07:37:56 51°14.411 2°54.995 0.1 278 5.1 99340 38
2009-11-30 07:38:01 51°14.422 2°54.983 0.5 30 5.1 99340 38
2009-11-30 07:38:06 51°14.434 2°54.971 0.1 283 5.1 99340 40
2009-11-30 07:38:11 51°14.445 2°54.959 0.1 246 5.1 99340 40
2009-11-30 07:38:16 51°14.458 2°54.948 0.1 283 5.1 99340 38
2009-11-30 07:38:21 51°14.47 2°54.937 0.1 242 5.1 99340 38
2009-11-30 07:38:26 51°14.483 2°54.927 -999 278 5.1 99340 38
2009-11-30 07:38:31 51°14.496 2°54.917 1 333 5.1 99340 38
2009-11-30 07:38:36 51°14.509 2°54.907 0.1 283 5.1 99340 38
2009-11-30 07:38:41 51°14.522 2°54.898 0.1 342 5.1 99340 38
2009-11-30 07:38:45 51°14.533 2°54.892 0.1 339 5.1 99340 38
2009-11-30 07:38:51 51°14.55 2°54.884 -999 341 5.1 99340 38
2009-11-30 07:38:56 51°14.565 2°54.878 -999 283 5.1 99340 38
2009-11-30 07:39:01 51°14.579 2°54.872 -999 352 5.1 99340 38
2009-11-30 07:39:06 51°14.594 2°54.867 -999 283 5.1 99340 38
2009-11-30 07:39:11 51°14.609 2°54.861 -999 344 5.1 99340 38
2009-11-30 07:39:16 51°14.624 2°54.856 -999 283 5.1 99340 38
2009-11-30 07:39:21 51°14.639 2°54.851 -999 244 5.1 99340 38
2009-11-30 07:39:25 51°14.651 2°54.846 -999 -999 5.1 99340 38
2009-11-30 07:39:31 51°14.669 2°54.84 0.1 329 5.1 99340 38
2009-11-30 07:39:36 51°14.684 2°54.834 0.1 351 5.1 99340 38
2009-11-30 07:39:41 51°14.699 2°54.829 0.1 347 5.1 99340 38
2009-11-30 07:39:45 51°14.711 2°54.825 0.1 283 5.1 99340 38
2009-11-30 07:39:51 51°14.73 2°54.818 0.1 345 5.1 99340 38
2009-11-30 07:39:56 51°14.745 2°54.813 -999 353 5.1 99340 38
2009-11-30 07:40:01 51°14.761 2°54.808 -999 356 5.1 99340 38
2009-11-30 07:40:06 51°14.776 2°54.803 -999 -999 5.1 99340 38
2009-11-30 07:40:11 51°14.791 2°54.798 -999 6 5.1 99340 38
2009-11-30 07:40:16 51°14.807 2°54.793 0.1 356 5.1 99340 37
2009-11-30 07:40:21 51°14.822 2°54.788 0.1 355 5.1 99340 37
2009-11-30 07:40:26 51°14.838 2°54.783 0.2 349 5.1 99340 38
2009-11-30 07:40:31 51°14.853 2°54.778 0.1 345 5.1 99340 38
2009-11-30 07:40:36 51°14.868 2°54.772 0.1 353 5.1 99340 38
2009-11-30 07:40:41 51°14.884 2°54.767 0.1 354 5.1 99340 38
2009-11-30 07:40:45 51°14.896 2°54.763 -999 359 5.1 99340 39
2009-11-30 07:40:51 51°14.914 2°54.757 -999 353 5.1 99340 39
2009-11-30 07:40:56 51°14.929 2°54.752 0.1 283 5.1 99340 38
2009-11-30 07:41:01 51°14.945 2°54.747 0.1 346 5.1 99340 38
2009-11-30 07:41:06 51°14.96 2°54.742 -999 348 5.1 99350 38
2009-11-30 07:41:11 51°14.976 2°54.736 -999 349 5.1 99350 38
2009-11-30 07:41:16 51°14.991 2°54.731 0.1 352 5.1 99340 38
2009-11-30 07:41:21 51°15.006 2°54.726 0.1 353 5.1 99340 38
2009-11-30 07:41:26 51°15.022 2°54.72 -999 283 5.1 99340 38
2009-11-30 07:41:31 51°15.037 2°54.716 -999 342 5.1 99340 38
2009-11-30 07:41:36 51°15.052 2°54.71 -999 353 5.2 99340 38
2009-11-30 07:41:41 51°15.068 2°54.705 0.1 344 5.2 99340 38
2009-11-30 07:41:46 51°15.083 2°54.7 0.1 -999 5.2 99340 38
2009-11-30 07:41:51 51°15.098 2°54.695 0.1 342 5.2 99340 38
2009-11-30 07:41:56 51°15.113 2°54.689 0.2 288 5.2 99350 38
2009-11-30 07:42:01 51°15.129 2°54.684 0.4 339 5.2 99350 38
2009-11-30 07:42:05 51°15.141 2°54.68 0.1 283 5.2 99340 38
2009-11-30 07:42:11 51°15.159 2°54.674 0.1 333 5.2 99340 38
2009-11-30 07:42:16 51°15.174 2°54.669 -999 283 5.2 99340 38
2009-11-30 07:42:21 51°15.189 2°54.663 -999 321 5.2 99340 38
2009-11-30 07:42:26 51°15.205 2°54.658 -999 283 5.2 99340 38
2009-11-30 07:42:32 51°15.223 2°54.652 0.3 320 5.2 99340 38
2009-11-30 07:42:37 51°15.239 2°54.647 0.2 283 5.2 99340 38
2009-11-30 07:42:41 51°15.251 2°54.643 0.1 34 5.2 99340 38
2009-11-30 07:42:46 51°15.266 2°54.638 0.3 283 5.2 99340 38
2009-11-30 07:42:51 51°15.282 2°54.632 0.1 329 5.2 99340 38
2009-11-30 07:42:56 51°15.297 2°54.627 0.1 283 5.2 99340 38
2009-11-30 07:43:01 51°15.312 2°54.621 -999 337 5.2 99340 38
2009-11-30 07:43:06 51°15.327 2°54.617 -999 283 5.2 99340 36
2009-11-30 07:43:11 51°15.343 2°54.611 -999 331 5.2 99340 36
2009-11-30 07:43:16 51°15.358 2°54.607 -999 283 5.2 99350 39
2009-11-30 07:43:21 51°15.374 2°54.601 -999 335 5.2 99350 39
2009-11-30 07:43:26 51°15.389 2°54.596 1.2 284 5.2 99340 38
2009-11-30 07:43:31 51°15.404 2°54.59 0.9 351 5.2 99340 38
2009-11-30 07:43:36 51°15.419 2°54.585 0.5 358 5.2 99340 38
2009-11-30 07:43:41 51°15.435 2°54.578 0.1 358 5.2 99340 38
2009-11-30 07:43:46 51°15.45 2°54.573 0.1 358 5.2 99340 38
2009-11-30 07:43:51 51°15.465 2°54.567 0.1 349 5.2 99340 38
2009-11-30 07:43:56 51°15.48 2°54.561 -999 283 5.2 99350 37
2009-11-30 07:44:01 51°15.495 2°54.556 0.1 341 5.2 99350 37
2009-11-30 07:44:06 51°15.51 2°54.55 0.5 349 5.2 99340 38
2009-11-30 07:44:10 51°15.523 2°54.545 0.3 358 5.2 99340 38
2009-11-30 07:44:16 51°15.541 2°54.539 0.5 355 5.2 99350 38
2009-11-30 07:44:22 51°15.559 2°54.532 0.2 348 5.2 99350 38
2009-11-30 07:44:26 51°15.571 2°54.527 0.8 345 5.2 99340 38
2009-11-30 07:44:31 51°15.587 2°54.521 1 326 5.2 99340 38
2009-11-30 07:44:36 51°15.602 2°54.516 0.8 284 5.2 99340 40
2009-11-30 07:44:41 51°15.617 2°54.51 0.5 322 5.2 99340 40
2009-11-30 07:44:46 51°15.632 2°54.504 0.1 -999 5.3 99340 37
2009-11-30 07:44:52 51°15.651 2°54.497 0.1 332 5.3 99340 37
2009-11-30 07:44:56 51°15.663 2°54.492 0.1 280 5.3 99340 38
2009-11-30 07:45:01 51°15.678 2°54.487 0.1 325 5.3 99340 38
2009-11-30 07:45:06 51°15.693 2°54.481 0.1 283 5.3 99350 38
2009-11-30 07:45:11 51°15.709 2°54.475 0.1 34 5.3 99350 38
2009-11-30 07:45:16 51°15.724 2°54.47 0.1 283 5.3 99350 38
2009-11-30 07:45:21 51°15.739 2°54.464 -999 34 5.3 99350 38
2009-11-30 07:45:26 51°15.755 2°54.458 -999 283 5.3 99350 38
2009-11-30 07:45:31 51°15.77 2°54.452 0.1 322 5.3 99350 38
2009-11-30 07:45:36 51°15.785 2°54.446 0.1 283 5.3 99350 38
2009-11-30 07:45:41 51°15.8 2°54.441 0.1 34 5.3 99350 39
2009-11-30 07:45:46 51°15.816 2°54.435 -999 -999 5.3 99350 39
2009-11-30 07:45:51 51°15.831 2°54.429 -999 238 5.3 99350 39
2009-11-30 07:45:56 51°15.846 2°54.423 -999 283 5.4 99350 39
2009-11-30 07:46:02 51°15.864 2°54.417 0.1 320 5.4 99350 39
2009-11-30 07:46:06 51°15.876 2°54.413 0.1 283 5.4 99350 39
2009-11-30 07:46:11 51°15.891 2°54.406 0.6 319 5.4 99350 39
2009-11-30 07:46:16 51°15.906 2°54.401 1 279 5.4 99350 39
2009-11-30 07:46:22 51°15.924 2°54.394 1.3 242 5.4 99350 39
2009-11-30 07:46:26 51°15.936 2°54.39 0.8 284 5.4 99350 39
2009-11-30 07:46:31 51°15.951 2°54.384 0.9 257 5.4 99350 39
2009-11-30 07:46:35 51°15.963 2°54.38 0.6 282 5.4 99350 40
2009-11-30 07:46:42 51°15.983 2°54.372 0.5 42 5.4 99360 38
2009-11-30 07:46:46 51°15.994 2°54.368 0.6 22 5.4 99360 38
2009-11-30 07:46:52 51°16.01 2°54.362 0.1 34 5.4 99360 38
2009-11-30 07:46:56 51°16.02 2°54.358 0.1 78 5.4 99350 38
2009-11-30 07:47:01 51°16.032 2°54.354 -999 34 5.4 99350 38
2009-11-30 07:47:06 51°16.043 2°54.35 0.1 77 5.4 99350 39
2009-11-30 07:47:12 51°16.054 2°54.346 0.1 34 5.4 99350 39
2009-11-30 07:47:16 51°16.062 2°54.343 -999 77 5.5 99350 39
2009-11-30 07:47:21 51°16.071 2°54.341 1.6 37 5.5 99350 39
2009-11-30 07:47:26 51°16.079 2°54.338 1.8 73 5.5 99350 39
2009-11-30 07:47:32 51°16.089 2°54.336 1.1 36 5.5 99350 39
2009-11-30 07:47:37 51°16.097 2°54.334 0.3 73 5.5 99350 39
2009-11-30 07:47:42 51°16.104 2°54.332 0.3 32 5.5 99350 39
2009-11-30 07:47:46 51°16.11 2°54.331 0.1 22 5.5 99350 39
2009-11-30 07:47:52 51°16.118 2°54.329 0.1 29 5.6 99350 39
2009-11-30 07:47:57 51°16.125 2°54.328 0.1 77 5.6 99350 39
2009-11-30 07:48:02 51°16.132 2°54.326 0.6 37 5.6 99350 39
2009-11-30 07:48:06 51°16.137 2°54.324 0.1 77 5.6 99350 39
2009-11-30 07:48:11 51°16.144 2°54.323 0.1 34 5.6 99350 39
2009-11-30 07:48:16 51°16.15 2°54.321 -999 77 5.6 99360 38
2009-11-30 07:48:21 51°16.157 2°54.32 -999 34 5.6 99360 38
2009-11-30 07:48:26 51°16.165 2°54.317 1 74 5.6 99350 39
2009-11-30 07:48:32 51°16.173 2°54.315 0.5 33 5.6 99350 39
2009-11-30 07:48:36 51°16.179 2°54.314 1.4 79 5.6 99350 39
2009-11-30 07:48:42 51°16.187 2°54.311 0.9 30 5.6 99350 39
2009-11-30 07:48:46 51°16.192 2°54.309 1.5 20 5.6 99350 38
2009-11-30 07:48:52 51°16.2 2°54.307 1.7 32 5.6 99350 38
2009-11-30 07:48:56 51°16.206 2°54.306 0.8 72 5.7 99360 39
2009-11-30 07:49:01 51°16.213 2°54.303 0.2 36 5.7 99360 39
2009-11-30 07:49:06 51°16.219 2°54.301 0.1 77 5.7 99350 40
2009-11-30 07:49:12 51°16.227 2°54.298 0.9 40 5.7 99350 40
2009-11-30 07:49:16 51°16.231 2°54.297 0.3 77 5.7 99350 38
2009-11-30 07:49:21 51°16.237 2°54.294 1 40 5.7 99350 38
2009-11-30 07:49:26 51°16.242 2°54.292 0.2 77 5.7 99360 39
2009-11-30 07:49:32 51°16.247 2°54.29 1 34 5.7 99360 39
2009-11-30 07:49:37 51°16.25 2°54.288 2.6 78 5.8 99360 39
2009-11-30 07:49:41 51°16.253 2°54.287 2.7 33 5.8 99360 39
2009-11-30 07:49:46 51°16.255 2°54.286 3.5 26 5.9 99360 39
2009-11-30 07:49:52 51°16.258 2°54.285 2.8 37 5.9 99360 39
2009-11-30 07:49:56 51°16.26 2°54.283 3.3 75 5.9 99360 38
2009-11-30 07:50:02 51°16.263 2°54.282 0.9 39 5.9 99360 38
2009-11-30 07:50:06 51°16.265 2°54.281 4.6 74 6 99360 38
2009-11-30 07:50:12 51°16.266 2°54.281 3.2 37 6 99360 38
2009-11-30 07:50:17 51°16.268 2°54.28 3.1 75 6.1 99360 38
2009-11-30 07:50:21 51°16.269 2°54.279 3.1 25 6.1 99360 41
2009-11-30 07:50:26 51°16.27 2°54.279 3.1 72 6.1 99360 41
2009-11-30 07:50:31 51°16.272 2°54.278 4.7 23 6.1 99360 38
2009-11-30 07:50:36 51°16.274 2°54.277 4.7 74 6.1 99360 38
2009-11-30 07:50:41 51°16.275 2°54.276 6.3 27 6.2 99360 38
2009-11-30 07:50:46 51°16.276 2°54.276 5.7 81 6.2 99360 38
2009-11-30 07:50:51 51°16.278 2°54.275 5.7 22 6.2 99360 40
2009-11-30 07:50:56 51°16.279 2°54.274 5.3 81 6.2 99360 40
2009-11-30 07:51:01 51°16.281 2°54.273 5.7 27 6.2 99360 39
2009-11-30 07:51:06 51°16.282 2°54.272 5.6 78 6.2 99360 39
2009-11-30 07:51:11 51°16.283 2°54.271 6.3 26 6.1 99370 38
2009-11-30 07:51:17 51°16.284 2°54.27 5.8 76 6.1 99370 38
2009-11-30 07:51:21 51°16.285 2°54.27 5.3 25 6 99360 40
2009-11-30 07:51:26 51°16.287 2°54.269 4.9 73 6 99360 40
2009-11-30 07:51:31 51°16.288 2°54.268 5.6 20 6 99360 38
2009-11-30 07:51:36 51°16.289 2°54.267 5.8 81 6 99360 38
2009-11-30 07:51:41 51°16.29 2°54.266 6.2 24 6 99370 37
2009-11-30 07:51:46 51°16.291 2°54.265 6.2 76 6 99370 37
2009-11-30 07:51:51 51°16.292 2°54.264 6.4 19 6 99360 40
2009-11-30 07:51:56 51°16.293 2°54.263 6.1 77 6 99360 40
2009-11-30 07:52:01 51°16.294 2°54.262 5.8 25 6 99370 39
2009-11-30 07:52:06 51°16.295 2°54.261 5.7 79 6 99370 39
2009-11-30 07:52:11 51°16.296 2°54.26 5.6 19 6 99370 37
2009-11-30 07:52:17 51°16.297 2°54.259 6.5 75 6 99370 37
2009-11-30 07:52:21 51°16.298 2°54.259 5.9 19 6 99360 38
2009-11-30 07:52:26 51°16.299 2°54.258 5.5 77 6 99360 38
2009-11-30 07:52:31 51°16.3 2°54.257 6 26 5.9 99370 38
2009-11-30 07:52:37 51°16.301 2°54.256 6.4 81 5.9 99370 38
2009-11-30 07:52:42 51°16.302 2°54.255 6.3 19 5.9 99370 38
2009-11-30 07:52:46 51°16.303 2°54.254 5.6 78 5.9 99370 38
2009-11-30 07:52:51 51°16.304 2°54.254 5.9 20 5.9 99370 40
2009-11-30 07:52:57 51°16.305 2°54.252 6.2 74 5.9 99370 40
2009-11-30 07:53:01 51°16.305 2°54.252 6.6 21 5.9 99370 40
2009-11-30 07:53:06 51°16.306 2°54.251 6.5 74 5.9 99370 40
2009-11-30 07:53:11 51°16.307 2°54.25 6.2 20 5.9 99370 37
2009-11-30 07:53:17 51°16.308 2°54.249 6.7 75 5.9 99370 37
2009-11-30 07:53:21 51°16.308 2°54.248 5.8 25 5.9 99370 38
2009-11-30 07:53:26 51°16.309 2°54.247 6 79 5.9 99370 38
2009-11-30 07:53:31 51°16.31 2°54.247 6 19 5.9 99370 39
2009-11-30 07:53:36 51°16.311 2°54.246 5.6 78 5.9 99370 39
2009-11-30 07:53:41 51°16.311 2°54.245 5.6 25 5.9 99370 40
2009-11-30 07:53:46 51°16.312 2°54.244 6.6 79 5.9 99370 40
2009-11-30 07:53:51 51°16.313 2°54.244 6.2 21 5.9 99370 40
2009-11-30 07:53:56 51°16.313 2°54.243 6.4 74 5.9 99370 40
2009-11-30 07:54:01 51°16.314 2°54.242 5.3 23 5.9 99370 38
2009-11-30 07:54:06 51°16.315 2°54.242 5.1 75 5.9 99370 38
2009-11-30 07:54:11 51°16.315 2°54.241 5.7 25 5.9 99370 38
2009-11-30 07:54:16 51°16.316 2°54.24 5.7 79 5.9 99370 38
2009-11-30 07:54:21 51°16.316 2°54.239 5.4 23 5.9 99370 39
2009-11-30 07:54:26 51°16.317 2°54.239 6.1 75 5.9 99370 39
2009-11-30 07:54:31 51°16.317 2°54.238 6.1 29 5.9 99370 40
2009-11-30 07:54:36 51°16.318 2°54.238 5.9 80 5.9 99370 40
2009-11-30 07:54:41 51°16.319 2°54.237 6.1 27 5.9 99370 38
2009-11-30 07:54:46 51°16.319 2°54.237 5.8 282 5.9 99370 38
2009-11-30 07:54:51 51°16.32 2°54.236 6.6 33 5.8 99370 40
2009-11-30 07:54:57 51°16.321 2°54.236 5.8 76 5.8 99370 40
2009-11-30 07:55:01 51°16.322 2°54.235 6 21 5.8 99370 39
2009-11-30 07:55:06 51°16.322 2°54.234 5.7 73 5.8 99370 39
2009-11-30 07:55:11 51°16.323 2°54.234 5.9 29 5.8 99370 40
2009-11-30 07:55:16 51°16.323 2°54.234 6.2 78 5.8 99370 40
2009-11-30 07:55:21 51°16.323 2°54.233 6.1 28 5.8 99370 40
2009-11-30 07:55:26 51°16.324 2°54.233 5.3 287 5.8 99370 40
2009-11-30 07:55:31 51°16.325 2°54.232 5.7 270 5.8 99370 38
2009-11-30 07:55:36 51°16.325 2°54.232 5 283 5.8 99370 38
2009-11-30 07:55:41 51°16.326 2°54.231 5.7 269 5.8 99370 38
2009-11-30 07:55:46 51°16.326 2°54.231 5.1 285 5.8 99370 38
2009-11-30 07:55:51 51°16.326 2°54.231 5 268 5.8 99370 40
2009-11-30 07:55:56 51°16.327 2°54.23 5.4 285 5.8 99370 40
2009-11-30 07:56:01 51°16.328 2°54.23 6 26 5.8 99370 40
2009-11-30 07:56:07 51°16.328 2°54.229 6 73 5.8 99370 40
2009-11-30 07:56:11 51°16.329 2°54.229 6.4 268 5.8 99370 36
2009-11-30 07:56:17 51°16.329 2°54.229 5.2 80 5.8 99370 36
2009-11-30 07:56:21 51°16.329 2°54.229 5.7 270 5.8 99370 38
2009-11-30 07:56:26 51°16.33 2°54.228 5.5 281 5.8 99370 38
2009-11-30 07:56:31 51°16.33 2°54.228 5.2 270 5.7 99370 39
2009-11-30 07:56:37 51°16.331 2°54.228 4.4 285 5.7 99370 39
2009-11-30 07:56:41 51°16.331 2°54.228 4.8 27 5.8 99360 37
2009-11-30 07:56:46 51°16.331 2°54.227 5 285 5.8 99360 37
2009-11-30 07:56:51 51°16.332 2°54.227 5 266 5.8 99370 38
2009-11-30 07:56:57 51°16.332 2°54.227 4.7 287 5.8 99370 38
2009-11-30 07:57:01 51°16.332 2°54.226 3.9 266 5.8 99370 37
2009-11-30 07:57:06 51°16.333 2°54.226 4.7 287 5.8 99370 37
2009-11-30 07:57:11 51°16.333 2°54.226 5 266 5.8 99360 40
2009-11-30 07:57:16 51°16.334 2°54.226 5.4 280 5.8 99360 40
2009-11-30 07:57:22 51°16.334 2°54.225 6.1 269 5.8 99370 39
2009-11-30 07:57:25 51°16.335 2°54.225 5.3 279 5.8 99370 39
2009-11-30 07:57:31 51°16.335 2°54.225 5 267 5.8 99370 38
2009-11-30 07:57:36 51°16.335 2°54.225 5.4 283 5.8 99370 38
2009-11-30 07:57:42 51°16.335 2°54.225 5.4 268 5.8 99370 38
2009-11-30 07:57:46 51°16.336 2°54.225 4 287 5.8 99370 38
2009-11-30 07:57:51 51°16.336 2°54.225 4.4 264 5.8 99370 38
2009-11-30 07:57:56 51°16.336 2°54.225 5.9 281 5.8 99370 38
2009-11-30 07:58:01 51°16.337 2°54.225 4.3 264 5.8 99370 37
2009-11-30 07:58:06 51°16.337 2°54.225 5.2 286 5.8 99370 37
2009-11-30 07:58:11 51°16.337 2°54.224 6 269 5.8 99370 41
2009-11-30 07:58:16 51°16.338 2°54.224 6 285 5.8 99370 41
2009-11-30 07:58:21 51°16.338 2°54.224 4.5 265 5.8 99370 37
2009-11-30 07:58:26 51°16.338 2°54.224 4.4 281 5.8 99370 37
2009-11-30 07:58:32 51°16.339 2°54.224 5.3 262 5.8 99370 41
2009-11-30 07:58:36 51°16.339 2°54.224 6 283 5.8 99370 41
2009-11-30 07:58:41 51°16.339 2°54.224 4.8 263 5.8 99370 40
2009-11-30 07:58:46 51°16.34 2°54.224 3.8 285 5.8 99370 40
2009-11-30 07:58:51 51°16.34 2°54.225 4.1 263 5.8 99370 36
2009-11-30 07:58:56 51°16.341 2°54.225 5.1 285 5.8 99370 36
2009-11-30 07:59:01 51°16.341 2°54.225 5.3 267 5.8 99380 40
2009-11-30 07:59:06 51°16.342 2°54.225 5.3 279 5.8 99380 40
2009-11-30 07:59:11 51°16.342 2°54.225 4.9 266 5.8 99380 40
2009-11-30 07:59:17 51°16.343 2°54.225 4.9 287 5.8 99380 40
2009-11-30 07:59:21 51°16.343 2°54.225 6.9 260 5.8 99370 38
2009-11-30 07:59:26 51°16.343 2°54.225 8.1 282 5.8 99370 38
2009-11-30 07:59:31 51°16.344 2°54.225 8.6 255 5.7 99380 37
2009-11-30 07:59:36 51°16.344 2°54.225 7.5 280 5.7 99380 37
2009-11-30 07:59:42 51°16.345 2°54.225 6.1 259 5.7 99370 39
2009-11-30 07:59:46 51°16.345 2°54.225 5.2 284 5.7 99370 39
2009-11-30 07:59:51 51°16.346 2°54.225 6.2 257 5.7 99380 38
2009-11-30 07:59:56 51°16.346 2°54.226 5.2 280 5.7 99380 38
2009-11-30 08:00:02 51°16.347 2°54.226 4.7 263 5.7 99370 40
2009-11-30 08:00:05 51°16.347 2°54.226 4.1 286 5.7 99370 40
2009-11-30 08:00:11 51°16.347 2°54.226 4.5 265 5.7 99370 37
2009-11-30 08:00:15 51°16.348 2°54.226 4.5 280 5.7 99370 37
2009-11-30 08:00:21 51°16.349 2°54.226 3.9 263 5.7 99370 38
2009-11-30 08:00:26 51°16.349 2°54.227 5.1 286 5.7 99370 38
2009-11-30 08:00:31 51°16.35 2°54.227 4.6 264 5.8 99380 38
2009-11-30 08:00:36 51°16.35 2°54.227 5.5 286 5.8 99380 38
2009-11-30 08:00:41 51°16.35 2°54.227 4.8 265 5.8 99380 39
2009-11-30 08:00:46 51°16.351 2°54.227 4.7 285 5.8 99380 39
2009-11-30 08:00:52 51°16.352 2°54.228 5 268 5.8 99370 37
2009-11-30 08:00:57 51°16.352 2°54.228 4.5 283 5.8 99370 37
2009-11-30 08:01:01 51°16.352 2°54.228 4.6 265 5.8 99380 40
2009-11-30 08:01:06 51°16.353 2°54.227 4.4 280 5.8 99380 40
2009-11-30 08:01:11 51°16.353 2°54.226 4.2 263 5.8 99380 39
2009-11-30 08:01:16 51°16.354 2°54.224 4.1 279 5.8 99380 39
2009-11-30 08:01:21 51°16.354 2°54.221 3.7 263 5.7 99380 40
2009-11-30 08:01:26 51°16.354 2°54.216 7.2 283 5.7 99380 40
2009-11-30 08:01:31 51°16.354 2°54.211 7.6 254 5.7 99380 36
2009-11-30 08:01:37 51°16.353 2°54.203 6.7 282 5.7 99380 36
2009-11-30 08:01:41 51°16.353 2°54.196 6.8 259 5.7 99370 38
2009-11-30 08:01:46 51°16.353 2°54.188 6.4 280 5.7 99370 38
2009-11-30 08:01:51 51°16.353 2°54.178 5 260 5.7 99380 37
2009-11-30 08:01:56 51°16.353 2°54.168 6.3 287 5.7 99380 37
2009-11-30 08:02:01 51°16.355 2°54.157 5.1 260 5.7 99380 37
2009-11-30 08:02:06 51°16.357 2°54.146 2.7 286 5.7 99380 37
2009-11-30 08:02:10 51°16.359 2°54.137 4.5 269 5.7 99380 37
2009-11-30 08:02:16 51°16.364 2°54.124 4.9 76 5.7 99380 37
2009-11-30 08:02:22 51°16.369 2°54.113 4.6 23 5.7 99380 37
2009-11-30 08:02:26 51°16.374 2°54.105 4.3 74 5.7 99380 37
2009-11-30 08:02:31 51°16.38 2°54.097 3.3 23 5.7 99370 38
2009-11-30 08:02:36 51°16.387 2°54.089 3.1 80 5.7 99370 38
2009-11-30 08:02:41 51°16.394 2°54.081 3 21 5.8 99380 40
2009-11-30 08:02:46 51°16.401 2°54.073 3.1 76 5.8 99380 40
2009-11-30 08:02:51 51°16.408 2°54.064 2.6 26 5.7 99370 39
2009-11-30 08:02:56 51°16.416 2°54.055 3.1 81 5.7 99370 39
2009-11-30 08:03:01 51°16.423 2°54.045 3.4 20 5.7 99380 40
2009-11-30 08:03:06 51°16.431 2°54.035 3.1 80 5.7 99380 40
2009-11-30 08:03:11 51°16.439 2°54.023 3.5 26 5.7 99380 39
2009-11-30 08:03:16 51°16.447 2°54.011 3.6 275 5.7 99380 39
2009-11-30 08:03:21 51°16.455 2°53.997 2.7 258 5.7 99370 40
2009-11-30 08:03:25 51°16.461 2°53.985 3.8 287 5.7 99370 40
2009-11-30 08:03:32 51°16.473 2°53.963 3.8 257 5.7 99380 40
2009-11-30 08:03:37 51°16.482 2°53.946 3.3 280 5.7 99380 40
2009-11-30 08:03:41 51°16.488 2°53.932 2.7 255 5.6 99380 37
2009-11-30 08:03:46 51°16.497 2°53.914 4.2 279 5.6 99380 37
2009-11-30 08:03:51 51°16.505 2°53.894 4.4 252 5.7 99380 40
2009-11-30 08:03:56 51°16.514 2°53.876 4.6 285 5.7 99380 40
2009-11-30 08:04:01 51°16.522 2°53.856 4.1 254 5.7 99370 40
2009-11-30 08:04:06 51°16.53 2°53.836 3.7 280 5.7 99370 40
2009-11-30 08:04:11 51°16.539 2°53.816 4.4 253 5.7 99380 36
2009-11-30 08:04:16 51°16.547 2°53.796 4.3 283 5.7 99380 36
2009-11-30 08:04:21 51°16.556 2°53.776 4.7 18 5.7 99370 37
2009-11-30 08:04:26 51°16.564 2°53.755 3.8 280 5.7 99370 37
2009-11-30 08:04:31 51°16.573 2°53.736 4.6 251 5.7 99380 40
2009-11-30 08:04:36 51°16.581 2°53.715 4.7 283 5.7 99380 40
2009-11-30 08:04:41 51°16.591 2°53.696 4.2 254 5.7 99370 40
2009-11-30 08:04:46 51°16.599 2°53.676 3.8 286 5.7 99370 40
2009-11-30 08:04:50 51°16.607 2°53.66 4.2 253 5.7 99380 38
2009-11-30 08:04:56 51°16.618 2°53.637 3.9 280 5.7 99380 38
2009-11-30 08:05:01 51°16.627 2°53.617 3.7 252 5.8 99370 39
2009-11-30 08:05:06 51°16.637 2°53.598 3.6 287 5.8 99370 39
2009-11-30 08:05:11 51°16.647 2°53.579 4.3 250 5.8 99380 37
2009-11-30 08:05:16 51°16.656 2°53.559 5.5 279 5.8 99380 37
2009-11-30 08:05:21 51°16.666 2°53.541 4.5 250 5.8 99380 40
2009-11-30 08:05:26 51°16.675 2°53.521 5 285 5.8 99380 40
2009-11-30 08:05:31 51°16.685 2°53.502 4.7 249 5.8 99370 37
2009-11-30 08:05:37 51°16.697 2°53.48 5.1 284 5.8 99370 37
2009-11-30 08:05:41 51°16.704 2°53.465 5.4 251 5.8 99380 40
2009-11-30 08:05:46 51°16.714 2°53.446 6 282 5.8 99380 40
2009-11-30 08:05:51 51°16.724 2°53.427 4.6 259 5.8 99380 39
2009-11-30 08:05:56 51°16.733 2°53.408 5.1 280 5.8 99380 39
2009-11-30 08:06:01 51°16.743 2°53.39 4.8 257 5.8 99380 40
2009-11-30 08:06:06 51°16.753 2°53.371 4.5 283 5.8 99380 40
2009-11-30 08:06:11 51°16.763 2°53.352 4.8 253 5.8 99380 40
2009-11-30 08:06:17 51°16.775 2°53.33 3.8 283 5.8 99380 40
2009-11-30 08:06:21 51°16.783 2°53.314 3.6 252 5.8 99370 40
2009-11-30 08:06:26 51°16.792 2°53.295 3.9 281 5.8 99370 40
2009-11-30 08:06:31 51°16.802 2°53.277 3.7 246 5.8 99380 37
2009-11-30 08:06:36 51°16.812 2°53.258 4.8 279 5.8 99380 37
2009-11-30 08:06:41 51°16.821 2°53.239 4.8 255 5.8 99380 38
2009-11-30 08:06:46 51°16.831 2°53.221 4.7 -999 5.8 99380 38
2009-11-30 08:06:51 51°16.841 2°53.202 4.7 252 5.8 99380 39
2009-11-30 08:06:56 51°16.85 2°53.183 5 285 5.8 99380 39
2009-11-30 08:07:02 51°16.862 2°53.161 4.8 256 5.8 99380 40
2009-11-30 08:07:06 51°16.869 2°53.146 4.6 287 5.8 99380 40
2009-11-30 08:07:11 51°16.879 2°53.128 5.3 255 5.8 99380 38
2009-11-30 08:07:16 51°16.889 2°53.109 5.5 286 5.8 99380 38
2009-11-30 08:07:21 51°16.898 2°53.091 2.6 254 5.8 99370 40
2009-11-30 08:07:26 51°16.908 2°53.073 4.5 284 5.8 99370 40
2009-11-30 08:07:31 51°16.917 2°53.054 5.9 251 5.8 99380 40
2009-11-30 08:07:36 51°16.926 2°53.035 6.8 282 5.8 99380 40
2009-11-30 08:07:41 51°16.936 2°53.017 7.2 255 5.8 99380 38
2009-11-30 08:07:46 51°16.946 2°52.998 5.7 -999 5.8 99380 38
2009-11-30 08:07:51 51°16.956 2°52.98 6.3 256 5.8 99370 39
2009-11-30 08:07:56 51°16.965 2°52.962 5.9 281 5.8 99370 39
2009-11-30 08:08:01 51°16.974 2°52.943 5.3 254 5.9 99370 39
2009-11-30 08:08:06 51°16.984 2°52.924 5.1 285 5.9 99370 39
2009-11-30 08:08:11 51°16.993 2°52.906 4.8 256 5.9 99370 38
2009-11-30 08:08:17 51°17.005 2°52.883 4.3 287 5.9 99370 38
2009-11-30 08:08:21 51°17.013 2°52.868 4.9 252 5.9 99380 38
2009-11-30 08:08:26 51°17.023 2°52.85 5.3 285 5.9 99380 38
2009-11-30 08:08:31 51°17.033 2°52.832 4.6 251 5.9 99370 40
2009-11-30 08:08:36 51°17.043 2°52.814 4.5 285 5.9 99370 40
2009-11-30 08:08:41 51°17.054 2°52.796 4.9 253 5.9 99370 38
2009-11-30 08:08:46 51°17.064 2°52.778 5.6 283 5.9 99370 38
2009-11-30 08:08:51 51°17.074 2°52.76 5.1 258 5.9 99380 38
2009-11-30 08:08:57 51°17.086 2°52.739 4.7 279 5.9 99380 38
2009-11-30 08:09:01 51°17.094 2°52.725 4.5 259 5.9 99380 37
2009-11-30 08:09:06 51°17.104 2°52.707 4.5 284 5.9 99380 37
2009-11-30 08:09:11 51°17.115 2°52.689 3.5 262 5.9 99380 38
2009-11-30 08:09:16 51°17.126 2°52.672 4.2 280 5.9 99380 38
2009-11-30 08:09:21 51°17.136 2°52.654 3 262 5.9 99380 39
2009-11-30 08:09:26 51°17.147 2°52.637 2.9 282 5.9 99380 39
2009-11-30 08:09:31 51°17.158 2°52.62 3 260 5.9 99380 40
2009-11-30 08:09:36 51°17.168 2°52.603 4.2 280 5.9 99380 40
2009-11-30 08:09:41 51°17.179 2°52.586 3.9 256 5.8 99380 41
2009-11-30 08:09:46 51°17.19 2°52.569 2.1 279 5.8 99380 41
2009-11-30 08:09:51 51°17.201 2°52.553 5.4 259 5.8 99380 40
2009-11-30 08:09:56 51°17.212 2°52.536 3.8 286 5.8 99380 40
2009-11-30 08:10:01 51°17.224 2°52.521 3.8 258 5.8 99380 40
2009-11-30 08:10:06 51°17.235 2°52.504 4.2 285 5.8 99380 40
2009-11-30 08:10:11 51°17.246 2°52.488 4.8 255 5.9 99370 40
2009-11-30 08:10:17 51°17.26 2°52.469 4 282 5.9 99370 40
2009-11-30 08:10:20 51°17.266 2°52.459 3.9 253 5.9 99370 40
2009-11-30 08:10:26 51°17.28 2°52.44 3.7 285 5.9 99380 38
2009-11-30 08:10:31 51°17.292 2°52.425 4 257 5.9 99380 38
2009-11-30 08:10:37 51°17.305 2°52.406 3.6 280 5.9 99380 38
2009-11-30 08:10:41 51°17.315 2°52.394 3.8 257 5.9 99380 38
2009-11-30 08:10:42 51°17.317 2°52.391 3.8 257 5.9 99380 38
2009-11-30 08:10:55 51°17.348 2°52.351 3 278 5.9 99380 41
2009-11-30 08:11:00 51°17.36 2°52.337 3.3 255 5.9 99380 41
2009-11-30 08:11:05 51°17.372 2°52.322 2.8 279 5.9 99390 38
2009-11-30 08:11:10 51°17.384 2°52.307 2.6 260 5.9 99390 38
2009-11-30 08:11:15 51°17.396 2°52.293 2.6 281 5.9 99390 38
2009-11-30 08:11:21 51°17.41 2°52.275 3 260 5.9 99390 38
2009-11-30 08:11:25 51°17.42 2°52.263 1.7 286 5.9 99380 38
2009-11-30 08:11:30 51°17.432 2°52.249 2.6 260 5.9 99380 38
2009-11-30 08:11:35 51°17.444 2°52.234 2.5 281 5.9 99390 41
2009-11-30 08:11:41 51°17.458 2°52.217 0.5 263 5.9 99390 41
2009-11-30 08:11:45 51°17.468 2°52.206 0.7 263 5.9 99390 41
2009-11-30 08:11:46 51°17.47 2°52.203 0.7 263 5.9 99390 41
2009-11-30 08:11:59 51°17.503 2°52.166 2 260 5.9 99390 37
2009-11-30 08:12:04 51°17.515 2°52.152 2.4 264 5.9 99390 38
2009-11-30 08:12:09 51°17.527 2°52.138 0.5 260 5.9 99390 38
2009-11-30 08:12:14 51°17.539 2°52.124 0.2 265 5.9 99390 37
2009-11-30 08:12:19 51°17.552 2°52.11 0.6 261 5.9 99390 37
2009-11-30 08:12:24 51°17.564 2°52.096 0.7 263 5.9 99390 38
2009-11-30 08:12:29 51°17.576 2°52.081 1 254 5.9 99390 38
2009-11-30 08:12:34 51°17.589 2°52.067 2.9 250 5.9 99390 37
2009-11-30 08:12:40 51°17.603 2°52.05 2.4 263 5.9 99390 37
2009-11-30 08:12:44 51°17.613 2°52.039 4.1 252 5.8 99390 39
2009-11-30 08:12:49 51°17.625 2°52.025 4.3 254 5.8 99390 39
2009-11-30 08:12:54 51°17.639 2°52.01 4.1 254 5.9 99390 40
2009-11-30 08:12:59 51°17.651 2°51.996 4.9 256 5.9 99390 40
2009-11-30 08:13:05 51°17.665 2°51.98 3.9 249 5.9 99380 40
2009-11-30 08:13:10 51°17.677 2°51.966 4.4 256 5.9 99380 40
2009-11-30 08:13:14 51°17.687 2°51.955 4.1 255 5.9 99390 39
2009-11-30 08:13:19 51°17.699 2°51.94 4.8 256 5.9 99390 39
2009-11-30 08:13:23 51°17.708 2°51.93 4.3 260 5.9 99390 40
2009-11-30 08:13:29 51°17.723 2°51.912 3.9 257 5.9 99390 40
2009-11-30 08:13:33 51°17.732 2°51.901 4.1 254 5.9 99390 40
2009-11-30 08:13:39 51°17.747 2°51.883 3.6 259 5.9 99390 40
2009-11-30 08:13:44 51°17.759 2°51.869 3.6 257 5.9 99390 38
2009-11-30 08:13:49 51°17.771 2°51.855 2.1 260 5.9 99390 38
2009-11-30 08:13:53 51°17.781 2°51.844 2.2 263 5.9 99390 38
2009-11-30 08:13:59 51°17.796 2°51.828 2 265 5.9 99390 38
2009-11-30 08:14:03 51°17.805 2°51.816 3 261 5.9 99400 38
2009-11-30 08:14:09 51°17.819 2°51.8 3.6 256 5.9 99400 38
2009-11-30 08:14:14 51°17.831 2°51.785 3.4 259 5.9 99390 41
2009-11-30 08:14:19 51°17.843 2°51.771 2.3 259 5.9 99390 41
2009-11-30 08:14:24 51°17.855 2°51.757 3.1 259 5.9 99390 38
2009-11-30 08:14:29 51°17.867 2°51.743 3.6 257 5.9 99390 38
2009-11-30 08:14:34 51°17.879 2°51.728 3.9 252 6 99380 38
2009-11-30 08:14:39 51°17.891 2°51.714 3.9 257 6 99380 38
2009-11-30 08:14:44 51°17.903 2°51.7 4.6 251 6 99390 38
2009-11-30 08:14:49 51°17.915 2°51.686 4 252 6 99390 38
2009-11-30 08:14:54 51°17.927 2°51.672 3.4 258 6 99390 40
2009-11-30 08:14:59 51°17.939 2°51.657 3.7 255 6 99390 40
2009-11-30 08:15:04 51°17.952 2°51.643 4.3 257 6 99390 40
2009-11-30 08:15:09 51°17.964 2°51.629 3.6 259 6 99390 40
2009-11-30 08:15:14 51°17.975 2°51.615 4.4 255 6 99390 37
2009-11-30 08:15:19 51°17.987 2°51.6 3.7 251 6 99390 37
2009-11-30 08:15:24 51°17.999 2°51.587 3.9 255 6 99390 40
2009-11-30 08:15:29 51°18.011 2°51.573 3.8 249 6 99390 40
2009-11-30 08:15:34 51°18.024 2°51.559 3.7 19 6 99400 38
2009-11-30 08:15:39 51°18.036 2°51.545 3.9 256 6 99400 38
2009-11-30 08:15:44 51°18.048 2°51.53 3 259 6 99390 37
2009-11-30 08:15:50 51°18.062 2°51.513 2.7 259 6 99390 37
2009-11-30 08:15:54 51°18.072 2°51.502 0.6 262 6 99400 37
2009-11-30 08:15:59 51°18.084 2°51.488 2.6 257 6 99400 37
2009-11-30 08:16:04 51°18.096 2°51.473 1.9 256 6 99390 38
2009-11-30 08:16:09 51°18.108 2°51.459 3.3 259 6 99390 38
2009-11-30 08:16:14 51°18.121 2°51.445 3.7 252 6 99390 39
2009-11-30 08:16:19 51°18.133 2°51.431 3.9 253 6 99390 39
2009-11-30 08:16:24 51°18.144 2°51.416 4 257 6 99400 38
2009-11-30 08:16:29 51°18.156 2°51.401 4.5 256 6 99400 38
2009-11-30 08:16:34 51°18.168 2°51.387 4.4 256 5.9 99390 40
2009-11-30 08:16:39 51°18.18 2°51.372 4.1 255 5.9 99390 40
2009-11-30 08:16:45 51°18.194 2°51.354 3.8 251 5.9 99390 38
2009-11-30 08:16:49 51°18.204 2°51.343 4.6 253 5.9 99390 38
2009-11-30 08:16:54 51°18.215 2°51.328 5.5 255 6 99400 40
2009-11-30 08:16:59 51°18.227 2°51.314 5 253 6 99400 40
2009-11-30 08:17:04 51°18.239 2°51.299 5 261 6 99390 40
2009-11-30 08:17:09 51°18.251 2°51.285 4.2 255 6 99390 40
2009-11-30 08:17:14 51°18.263 2°51.27 4.4 252 6 99390 40
2009-11-30 08:17:20 51°18.278 2°51.253 3.8 261 6 99390 40
2009-11-30 08:17:24 51°18.288 2°51.241 5.3 256 6 99400 39
2009-11-30 08:17:29 51°18.3 2°51.227 4.3 255 6 99400 39
2009-11-30 08:17:34 51°18.311 2°51.212 4.7 254 6 99390 37
2009-11-30 08:17:39 51°18.322 2°51.198 2.5 264 6 99390 37
2009-11-30 08:17:45 51°18.335 2°51.182 2.8 265 6 99400 41
2009-11-30 08:17:49 51°18.343 2°51.172 3.9 270 6 99400 41
2009-11-30 08:17:54 51°18.353 2°51.162 3.8 31 6 99390 41
2009-11-30 08:17:59 51°18.362 2°51.151 3.9 266 6 99390 41
2009-11-30 08:18:04 51°18.371 2°51.141 4.3 270 6 99390 40
2009-11-30 08:18:09 51°18.379 2°51.132 4.7 35 6 99390 40
2009-11-30 08:18:14 51°18.387 2°51.122 4.5 20 6 99390 39
2009-11-30 08:18:19 51°18.394 2°51.113 3.9 268 6 99390 39
2009-11-30 08:18:24 51°18.401 2°51.105 4.3 28 6 99400 36
2009-11-30 08:18:30 51°18.409 2°51.095 4.8 30 6 99400 36
2009-11-30 08:18:34 51°18.415 2°51.089 5.6 26 6 99400 40
2009-11-30 08:18:39 51°18.421 2°51.082 4.9 31 6 99400 40
2009-11-30 08:18:44 51°18.427 2°51.075 4 267 6 99390 38
2009-11-30 08:18:49 51°18.432 2°51.069 6 40 6 99390 38
2009-11-30 08:18:54 51°18.438 2°51.063 5.6 26 6 99400 39
2009-11-30 08:18:59 51°18.443 2°51.057 5.7 32 6 99400 39
2009-11-30 08:19:04 51°18.447 2°51.051 5.6 19 6 99390 37
2009-11-30 08:19:09 51°18.451 2°51.046 7 37 6 99390 37
2009-11-30 08:19:14 51°18.455 2°51.041 7 27 6 99390 38
2009-11-30 08:19:19 51°18.459 2°51.036 6 30 6 99390 38
2009-11-30 08:19:25 51°18.463 2°51.03 6.4 23 6 99390 38
2009-11-30 08:19:29 51°18.466 2°51.027 6.8 39 6 99390 38
2009-11-30 08:19:33 51°18.469 2°51.023 6.3 27 6 99390 40
2009-11-30 08:19:38 51°18.472 2°51.018 6.6 37 6 99390 40
2009-11-30 08:19:45 51°18.476 2°51.012 6.5 17 6 99390 40
2009-11-30 08:19:49 51°18.478 2°51.009 5.8 269 6 99390 40
2009-11-30 08:19:54 51°18.481 2°51.005 6.1 30 6 99400 40
2009-11-30 08:19:59 51°18.484 2°51.002 6.4 34 6 99400 40
2009-11-30 08:20:04 51°18.486 2°50.999 6.6 26 6 99390 39
2009-11-30 08:20:09 51°18.488 2°50.997 6.8 42 6 99390 39
2009-11-30 08:20:13 51°18.489 2°50.994 6.8 21 6 99390 37
2009-11-30 08:20:17 51°18.489 2°50.993 6.2 268 6 99390 37
2009-11-30 08:20:23 51°18.49 2°50.992 6.4 267 6 99390 40
2009-11-30 08:20:29 51°18.491 2°50.991 6 266 6 99390 40
2009-11-30 08:20:33 51°18.492 2°50.99 6.3 20 6 99390 39
2009-11-30 08:20:37 51°18.493 2°50.99 5.2 266 6 99390 39
2009-11-30 08:20:43 51°18.494 2°50.989 6.3 270 6 99390 38
2009-11-30 08:20:49 51°18.495 2°50.989 4.9 266 6 99390 38
2009-11-30 08:20:53 51°18.495 2°50.988 5.7 267 6.1 99390 40
2009-11-30 08:20:59 51°18.496 2°50.988 6.3 268 6.1 99390 40
2009-11-30 08:21:03 51°18.496 2°50.988 5 268 6 99390 39
2009-11-30 08:21:09 51°18.497 2°50.987 5.8 262 6 99390 39
2009-11-30 08:21:13 51°18.497 2°50.987 4.9 270 6.1 99400 40
2009-11-30 08:21:19 51°18.498 2°50.987 5.6 264 6.1 99400 40
2009-11-30 08:21:23 51°18.498 2°50.987 5.6 265 6.1 99400 39
2009-11-30 08:21:29 51°18.498 2°50.987 5.3 262 6.1 99400 39
2009-11-30 08:21:33 51°18.499 2°50.987 5.5 262 6.1 99390 40
2009-11-30 08:21:40 51°18.499 2°50.987 6 269 6.1 99390 40
2009-11-30 08:21:43 51°18.5 2°50.987 6 267 6.1 99390 40
2009-11-30 08:21:49 51°18.5 2°50.987 5.9 261 6.1 99390 40
2009-11-30 08:21:54 51°18.501 2°50.987 5.1 263 6.1 99390 38
2009-11-30 08:21:59 51°18.501 2°50.987 5.4 264 6.1 99390 38
2009-11-30 08:22:05 51°18.501 2°50.987 3.9 265 6.1 99390 40
2009-11-30 08:22:09 51°18.501 2°50.987 7.2 258 6.1 99390 40
2009-11-30 08:22:13 51°18.502 2°50.987 6.7 262 6.1 99400 38
2009-11-30 08:22:19 51°18.502 2°50.987 7.2 260 6.1 99400 38
2009-11-30 08:22:23 51°18.502 2°50.987 6.7 260 6.1 99390 40
2009-11-30 08:22:29 51°18.503 2°50.988 7.9 257 6.1 99390 40
2009-11-30 08:22:33 51°18.503 2°50.988 7.9 260 6.1 99390 40
2009-11-30 08:22:39 51°18.504 2°50.989 9.1 257 6.1 99390 40
2009-11-30 08:22:43 51°18.504 2°50.989 8.4 256 6.1 99380 39
2009-11-30 08:22:49 51°18.504 2°50.99 8 257 6.1 99380 39
2009-11-30 08:22:53 51°18.505 2°50.99 7.1 253 6.1 99390 38
2009-11-30 08:22:59 51°18.505 2°50.991 7 254 6.1 99390 38
2009-11-30 08:23:03 51°18.506 2°50.991 5.7 260 6.2 99390 39
2009-11-30 08:23:09 51°18.506 2°50.992 6.9 256 6.2 99390 39
2009-11-30 08:23:13 51°18.507 2°50.992 7 258 6.2 99380 38
2009-11-30 08:23:19 51°18.507 2°50.993 7 260 6.2 99380 38
2009-11-30 08:23:23 51°18.508 2°50.993 4.8 263 6.2 99390 38
2009-11-30 08:23:29 51°18.508 2°50.994 6.7 256 6.2 99390 38
2009-11-30 08:23:33 51°18.509 2°50.994 7.5 259 6.1 99380 40
2009-11-30 08:23:39 51°18.509 2°50.995 8.2 257 6.1 99380 40
2009-11-30 08:23:44 51°18.51 2°50.996 7.3 258 6.2 99390 38
2009-11-30 08:23:49 51°18.51 2°50.997 7 259 6.2 99390 38
2009-11-30 08:23:53 51°18.51 2°50.997 6.2 260 6.2 99390 40
2009-11-30 08:23:59 51°18.511 2°50.998 7.3 255 6.2 99390 40
2009-11-30 08:24:03 51°18.511 2°50.999 6.3 257 6.2 99390 39
2009-11-30 08:24:09 51°18.512 2°51 6.3 260 6.2 99390 39
2009-11-30 08:24:13 51°18.512 2°51.001 6.5 259 6.2 99380 40
2009-11-30 08:24:19 51°18.513 2°51.002 7.7 257 6.2 99380 40
2009-11-30 08:24:25 51°18.514 2°51.003 7.3 259 6.2 99390 39
2009-11-30 08:24:29 51°18.514 2°51.004 6.2 259 6.2 99390 39
2009-11-30 08:24:33 51°18.514 2°51.005 6.8 260 6.2 99380 39
2009-11-30 08:24:39 51°18.515 2°51.006 6.1 261 6.2 99380 39
2009-11-30 08:24:43 51°18.515 2°51.006 7 260 6.2 99390 39
2009-11-30 08:24:49 51°18.516 2°51.008 6.9 259 6.2 99390 39
2009-11-30 08:24:53 51°18.516 2°51.009 5.6 261 6.2 99390 38
2009-11-30 08:24:59 51°18.517 2°51.01 4.9 262 6.2 99390 38
2009-11-30 08:25:03 51°18.517 2°51.011 5.3 261 6.1 99390 40
2009-11-30 08:25:09 51°18.518 2°51.012 5.7 260 6.1 99390 40
2009-11-30 08:25:13 51°18.519 2°51.013 6.4 260 6.1 99390 39
2009-11-30 08:25:19 51°18.519 2°51.015 4.8 267 6.1 99390 39
2009-11-30 08:25:23 51°18.519 2°51.015 4.6 265 6.1 99390 38
2009-11-30 08:25:29 51°18.52 2°51.017 4.1 265 6.1 99390 38
2009-11-30 08:25:33 51°18.521 2°51.018 5.2 267 6.1 99390 37
2009-11-30 08:25:39 51°18.521 2°51.019 6.2 261 6.1 99390 37
2009-11-30 08:25:43 51°18.522 2°51.02 5.5 267 6.2 99390 38
2009-11-30 08:25:49 51°18.522 2°51.022 7.7 268 6.2 99390 38
2009-11-30 08:25:53 51°18.523 2°51.023 7.3 268 6.2 99390 41
2009-11-30 08:25:59 51°18.523 2°51.025 6.5 268 6.2 99390 41
2009-11-30 08:26:03 51°18.524 2°51.026 6.1 268 6.2 99390 39
2009-11-30 08:26:09 51°18.525 2°51.027 6.9 270 6.2 99390 39
2009-11-30 08:26:13 51°18.525 2°51.028 6.9 270 6.2 99390 40
2009-11-30 08:26:19 51°18.526 2°51.03 6.2 268 6.2 99390 40
2009-11-30 08:26:25 51°18.526 2°51.032 7 269 6.1 99400 39
2009-11-30 08:26:29 51°18.527 2°51.033 4.8 266 6.1 99400 39
2009-11-30 08:26:33 51°18.528 2°51.034 5.7 266 6.1 99390 40
2009-11-30 08:26:39 51°18.528 2°51.035 4.8 264 6.1 99390 40
2009-11-30 08:26:45 51°18.528 2°51.037 5.3 265 6.1 99400 39
2009-11-30 08:26:49 51°18.529 2°51.038 5.4 267 6.1 99400 39
2009-11-30 08:26:53 51°18.529 2°51.039 6.7 269 6 99390 38
2009-11-30 08:26:59 51°18.529 2°51.041 6.4 266 6 99390 38
2009-11-30 08:27:03 51°18.53 2°51.042 7.7 267 6 99390 38
2009-11-30 08:27:09 51°18.531 2°51.044 7.2 270 6 99390 38
2009-11-30 08:27:13 51°18.531 2°51.045 7.1 30 6.1 99390 38
2009-11-30 08:27:17 51°18.531 2°51.046 7.3 33 6.1 99390 38
2009-11-30 08:27:24 51°18.532 2°51.048 6.8 25 6.1 99390 40
2009-11-30 08:27:29 51°18.533 2°51.049 6.7 29 6.1 99390 40
2009-11-30 08:27:33 51°18.533 2°51.051 6.5 21 6.1 99400 39
2009-11-30 08:27:39 51°18.533 2°51.052 7.7 34 6.1 99400 39
2009-11-30 08:27:43 51°18.534 2°51.053 7.4 21 6.1 99390 38
2009-11-30 08:27:49 51°18.534 2°51.055 7.4 33 6.1 99390 38
2009-11-30 08:27:53 51°18.535 2°51.056 6.8 23 6.1 99390 39
2009-11-30 08:27:59 51°18.535 2°51.058 7.6 31 6.1 99390 39
2009-11-30 08:28:04 51°18.536 2°51.059 7.1 18 6.1 99390 39
2009-11-30 08:28:09 51°18.536 2°51.061 7.3 38 6.1 99390 39
2009-11-30 08:28:14 51°18.537 2°51.062 6.3 22 6.1 99400 39
2009-11-30 08:28:20 51°18.537 2°51.064 6.4 35 6.1 99400 39
2009-11-30 08:28:24 51°18.538 2°51.065 6.5 27 6.1 99400 40
2009-11-30 08:28:29 51°18.538 2°51.066 7.1 270 6.1 99400 40
2009-11-30 08:28:33 51°18.539 2°51.067 7.2 17 6.1 99400 39
2009-11-30 08:28:39 51°18.54 2°51.068 7.2 34 6.1 99400 39
2009-11-30 08:28:45 51°18.541 2°51.068 6.8 20 6.1 99400 39
2009-11-30 08:28:49 51°18.543 2°51.067 6.3 29 6.1 99400 39
2009-11-30 08:28:54 51°18.546 2°51.065 6.2 270 6.2 99390 40
2009-11-30 08:28:59 51°18.548 2°51.063 6.2 30 6.2 99390 40
2009-11-30 08:29:05 51°18.552 2°51.06 5.7 20 6.2 99390 39
2009-11-30 08:29:10 51°18.556 2°51.057 6.2 34 6.2 99390 39
2009-11-30 08:29:14 51°18.559 2°51.055 6.4 17 6.2 99390 38
2009-11-30 08:29:19 51°18.564 2°51.053 6.7 38 6.2 99390 38
2009-11-30 08:29:24 51°18.57 2°51.052 6 27 6.2 99390 39
2009-11-30 08:29:29 51°18.575 2°51.051 5.2 33 6.2 99390 39
2009-11-30 08:29:34 51°18.581 2°51.051 5 22 6.2 99390 40
2009-11-30 08:29:39 51°18.587 2°51.052 2.9 37 6.2 99390 40
2009-11-30 08:29:44 51°18.594 2°51.054 4.6 18 6.1 99410 38
2009-11-30 08:29:50 51°18.601 2°51.059 5.3 44 6.1 99410 38
2009-11-30 08:29:54 51°18.606 2°51.063 5.2 41 6.1 99400 38
2009-11-30 08:29:59 51°18.612 2°51.069 4.9 33 6.1 99400 38
2009-11-30 08:30:05 51°18.618 2°51.078 5.7 32 6.1 99400 40
2009-11-30 08:30:09 51°18.622 2°51.085 5.7 26 6.1 99400 40
2009-11-30 08:30:13 51°18.625 2°51.093 5.8 22 6.1 99390 40
2009-11-30 08:30:19 51°18.63 2°51.105 6.2 14 6.1 99390 40
2009-11-30 08:30:24 51°18.634 2°51.117 7 12 6.1 99380 40
2009-11-30 08:30:29 51°18.638 2°51.129 6.7 17 6.1 99380 40
2009-11-30 08:30:34 51°18.643 2°51.142 7.2 15 6.1 99380 38
2009-11-30 08:30:39 51°18.647 2°51.156 6.1 11 6.1 99380 38
2009-11-30 08:30:43 51°18.652 2°51.167 6.4 14 6.1 99380 40
2009-11-30 08:30:48 51°18.657 2°51.183 8.1 10 6.1 99380 40
2009-11-30 08:30:53 51°18.663 2°51.198 7.1 10 6.1 99380 39
2009-11-30 08:30:59 51°18.67 2°51.218 6.7 12 6.1 99380 39
2009-11-30 08:31:04 51°18.677 2°51.234 6.6 12 6.1 99380 39
2009-11-30 08:31:09 51°18.684 2°51.251 7.8 11 6.1 99380 39
2009-11-30 08:31:13 51°18.689 2°51.266 7.1 10 6.2 99390 38
2009-11-30 08:31:19 51°18.699 2°51.287 6.6 15 6.2 99390 38
2009-11-30 08:31:25 51°18.709 2°51.309 7.9 10 6.1 99380 40
2009-11-30 08:31:29 51°18.716 2°51.325 6.9 12 6.1 99380 40
2009-11-30 08:31:33 51°18.724 2°51.338 6.9 12 6.1 99390 38
2009-11-30 08:31:39 51°18.733 2°51.363 5.7 8 6.1 99390 38
2009-11-30 08:31:43 51°18.742 2°51.376 6.6 10 6.1 99390 39
2009-11-30 08:31:49 51°18.753 2°51.4 6.4 9 6.1 99390 39
2009-11-30 08:31:53 51°18.762 2°51.414 6 13 6.1 99380 38
2009-11-30 08:31:59 51°18.774 2°51.438 5.6 15 6.1 99380 38
2009-11-30 08:32:03 51°18.783 2°51.452 5.5 17 6.1 99380 40
2009-11-30 08:32:09 51°18.796 2°51.474 6.9 5 6.1 99380 40
2009-11-30 08:32:13 51°18.804 2°51.489 5.3 5 6.1 99390 38
2009-11-30 08:32:19 51°18.817 2°51.511 5.5 6 6.1 99390 38
2009-11-30 08:32:23 51°18.825 2°51.527 7.2 2 6.1 99390 40
2009-11-30 08:32:29 51°18.837 2°51.551 5.9 7 6.1 99390 40
2009-11-30 08:32:33 51°18.845 2°51.567 6.1 4 6.1 99390 39
2009-11-30 08:32:39 51°18.855 2°51.593 5.5 8 6.1 99390 39
2009-11-30 08:32:45 51°18.866 2°51.617 6 8 6.1 99390 41
2009-11-30 08:32:49 51°18.873 2°51.634 6.9 7 6.1 99390 41
2009-11-30 08:32:53 51°18.879 2°51.651 7.8 8 6.1 99390 40
2009-11-30 08:32:59 51°18.89 2°51.676 7.5 7 6.1 99390 40
2009-11-30 08:33:05 51°18.901 2°51.703 7.1 6 6.1 99380 38
2009-11-30 08:33:09 51°18.908 2°51.72 7 7 6.1 99380 38
2009-11-30 08:33:13 51°18.915 2°51.738 6 6 6.2 99380 38
2009-11-30 08:33:18 51°18.923 2°51.76 6.2 6 6.2 99380 38
2009-11-30 08:33:24 51°18.932 2°51.786 5.7 5 6.2 99390 40
2009-11-30 08:33:29 51°18.939 2°51.809 6.9 6 6.2 99390 40
2009-11-30 08:33:34 51°18.947 2°51.83 5.9 6 6.1 99390 37
2009-11-30 08:33:39 51°18.954 2°51.853 6.7 5 6.1 99390 37
2009-11-30 08:33:44 51°18.961 2°51.876 6.8 4 6.1 99390 40
2009-11-30 08:33:50 51°18.969 2°51.903 7.1 4 6.1 99390 40
2009-11-30 08:33:54 51°18.976 2°51.921 6.8 4 6.2 99390 39
2009-11-30 08:33:59 51°18.984 2°51.943 7 7 6.2 99390 39
2009-11-30 08:34:04 51°18.99 2°51.966 6.1 6 6.2 99390 39
2009-11-30 08:34:09 51°18.997 2°51.989 7.1 4 6.2 99390 39
2009-11-30 08:34:13 51°19.001 2°52.008 6.8 5 6.1 99400 40
2009-11-30 08:34:19 51°19.009 2°52.036 7.2 -999 6.1 99400 40
2009-11-30 08:34:23 51°19.013 2°52.055 6.5 3 6.1 99390 39
2009-11-30 08:34:29 51°19.02 2°52.084 8 359 6.1 99390 39
2009-11-30 08:34:33 51°19.025 2°52.102 7.7 3 6.1 99390 38
2009-11-30 08:34:39 51°19.03 2°52.131 9 360 6.1 99390 38
2009-11-30 08:34:43 51°19.036 2°52.15 9.6 359 6.1 99400 40
2009-11-30 08:34:48 51°19.04 2°52.175 8.2 -999 6.1 99400 40
2009-11-30 08:34:53 51°19.045 2°52.198 8 360 6.2 99390 41
2009-11-30 08:34:58 51°19.05 2°52.222 8.9 1 6.2 99390 41
2009-11-30 08:35:03 51°19.054 2°52.247 8.5 359 6.2 99390 39
2009-11-30 08:35:09 51°19.061 2°52.275 6.9 6 6.2 99390 39
2009-11-30 08:35:13 51°19.063 2°52.295 7.7 1 6.1 99390 40
2009-11-30 08:35:18 51°19.069 2°52.319 9.3 358 6.1 99390 40
2009-11-30 08:35:24 51°19.074 2°52.349 8.8 360 6.1 99390 38
2009-11-30 08:35:29 51°19.079 2°52.372 7.8 3 6.1 99390 38
2009-11-30 08:35:33 51°19.083 2°52.392 7.8 360 6.1 99390 40
2009-11-30 08:35:38 51°19.088 2°52.416 7.7 -999 6.1 99390 40
2009-11-30 08:35:44 51°19.093 2°52.445 7.6 358 6.1 99390 39
2009-11-30 08:35:48 51°19.097 2°52.465 8.2 1 6.1 99390 39
2009-11-30 08:35:53 51°19.102 2°52.49 8.4 1 6 99400 39
2009-11-30 08:35:58 51°19.107 2°52.514 6.8 5 6 99400 39
2009-11-30 08:36:03 51°19.111 2°52.539 7.7 2 6 99400 38
2009-11-30 08:36:08 51°19.116 2°52.563 6.3 1 6 99400 38
2009-11-30 08:36:13 51°19.121 2°52.588 7.1 2 6.1 99390 37
2009-11-30 08:36:18 51°19.126 2°52.612 7.1 1 6.1 99390 37
2009-11-30 08:36:23 51°19.131 2°52.636 7.8 -999 6.1 99400 39
2009-11-30 08:36:28 51°19.136 2°52.661 6.9 -999 6.1 99400 39
2009-11-30 08:36:33 51°19.141 2°52.685 6.9 1 6.1 99390 40
2009-11-30 08:36:38 51°19.146 2°52.709 6.4 360 6.1 99390 40
2009-11-30 08:36:43 51°19.151 2°52.733 6.6 2 6.1 99400 39
2009-11-30 08:36:49 51°19.157 2°52.763 8.2 2 6.1 99400 39
2009-11-30 08:36:53 51°19.161 2°52.783 7.4 4 6.1 99400 39
2009-11-30 08:36:59 51°19.167 2°52.812 7.1 2 6.1 99400 39
2009-11-30 08:37:03 51°19.171 2°52.832 7.8 3 6.1 99400 40
2009-11-30 08:37:08 51°19.175 2°52.857 7.5 2 6.1 99400 40
2009-11-30 08:37:13 51°19.18 2°52.882 7.4 2 6.1 99400 39
2009-11-30 08:37:19 51°19.186 2°52.911 7.4 3 6.1 99400 39
2009-11-30 08:37:23 51°19.19 2°52.931 7.8 3 6.1 99390 40
2009-11-30 08:37:28 51°19.195 2°52.956 6.2 2 6.1 99390 40
2009-11-30 08:37:33 51°19.2 2°52.981 7.4 358 6.1 99390 39
2009-11-30 08:37:39 51°19.205 2°53.01 7 1 6.1 99390 39
2009-11-30 08:37:44 51°19.21 2°53.035 7.9 360 6.1 99400 40
2009-11-30 08:37:49 51°19.215 2°53.06 8.5 359 6.1 99400 40
2009-11-30 08:37:53 51°19.219 2°53.079 9.1 359 6.1 99390 39
2009-11-30 08:37:59 51°19.225 2°53.109 8.6 1 6.1 99390 39
2009-11-30 08:38:05 51°19.231 2°53.139 8.4 -999 6.1 99390 40
2009-11-30 08:38:09 51°19.234 2°53.159 8.7 360 6.1 99390 40
2009-11-30 08:38:13 51°19.239 2°53.178 8.2 359 6.1 99400 38
2009-11-30 08:38:18 51°19.243 2°53.203 7.5 2 6.1 99400 38
2009-11-30 08:38:23 51°19.248 2°53.227 7.4 360 6.1 99390 40
2009-11-30 08:38:29 51°19.254 2°53.257 7.7 1 6.1 99390 40
2009-11-30 08:38:33 51°19.258 2°53.277 8.3 358 6.1 99400 38
2009-11-30 08:38:39 51°19.265 2°53.305 9.2 360 6.1 99400 38
2009-11-30 08:38:43 51°19.269 2°53.325 4.4 360 6.1 99390 38
2009-11-30 08:38:49 51°19.276 2°53.354 9.5 1 6.1 99390 38
2009-11-30 08:38:53 51°19.28 2°53.374 9.1 -999 6.2 99400 38
2009-11-30 08:38:59 51°19.286 2°53.402 6.9 4 6.2 99400 38
2009-11-30 08:39:03 51°19.291 2°53.422 8.6 358 6.2 99400 39
2009-11-30 08:39:09 51°19.297 2°53.45 9.5 358 6.2 99400 39
2009-11-30 08:39:13 51°19.301 2°53.47 8.5 2 6.1 99390 39
2009-11-30 08:39:19 51°19.309 2°53.498 6.6 4 6.1 99390 39
2009-11-30 08:39:23 51°19.313 2°53.518 7.8 4 6.1 99400 38
2009-11-30 08:39:29 51°19.319 2°53.547 7.1 2 6.1 99400 38
2009-11-30 08:39:33 51°19.323 2°53.566 7.4 359 6.1 99400 38
2009-11-30 08:39:39 51°19.33 2°53.595 7.5 358 6.1 99400 38
2009-11-30 08:39:45 51°19.336 2°53.625 8.6 359 6.1 99400 38
2009-11-30 08:39:49 51°19.341 2°53.644 7.5 -999 6.1 99400 38
2009-11-30 08:39:53 51°19.345 2°53.663 8.2 359 6.1 99400 38
2009-11-30 08:39:59 51°19.352 2°53.692 7.9 358 6.1 99400 38
2009-11-30 08:40:05 51°19.358 2°53.722 8.1 1 6.1 99410 40
2009-11-30 08:40:09 51°19.363 2°53.741 8.5 1 6.1 99410 40
2009-11-30 08:40:13 51°19.366 2°53.761 7.8 2 6.1 99400 40
2009-11-30 08:40:17 51°19.371 2°53.78 9.3 357 6.1 99400 40
2009-11-30 08:40:25 51°19.378 2°53.82 8.8 357 6.1 99400 40
2009-11-30 08:40:29 51°19.384 2°53.839 7.8 2 6.1 99400 40
2009-11-30 08:40:33 51°19.386 2°53.859 8.9 2 6.1 99400 40
2009-11-30 08:40:39 51°19.394 2°53.888 8.8 2 6.1 99400 40
2009-11-30 08:40:43 51°19.397 2°53.908 8 5 6.1 99410 38
2009-11-30 08:40:49 51°19.404 2°53.936 7.4 2 6.1 99410 38
2009-11-30 08:40:54 51°19.408 2°53.961 7.9 1 6.1 99400 39
2009-11-30 08:40:59 51°19.413 2°53.985 8.5 1 6.1 99400 39
2009-11-30 08:41:03 51°19.418 2°54.004 6.8 4 6.1 99400 38
2009-11-30 08:41:08 51°19.422 2°54.029 8.2 356 6.1 99400 38
2009-11-30 08:41:13 51°19.428 2°54.053 9.2 359 6.1 99400 38
2009-11-30 08:41:19 51°19.434 2°54.082 7.9 360 6.1 99400 38
2009-11-30 08:41:23 51°19.438 2°54.101 7.5 357 6.1 99400 40
2009-11-30 08:41:29 51°19.445 2°54.13 8.3 360 6.1 99400 40
2009-11-30 08:41:33 51°19.449 2°54.149 8.6 359 6.1 99400 39
2009-11-30 08:41:39 51°19.455 2°54.179 8.1 358 6.1 99400 39
2009-11-30 08:41:43 51°19.46 2°54.198 8.4 360 6 99400 38
2009-11-30 08:41:49 51°19.466 2°54.227 7.7 360 6 99400 38
2009-11-30 08:41:54 51°19.471 2°54.251 8.1 2 6 99400 40
2009-11-30 08:41:59 51°19.476 2°54.276 7.8 359 6 99400 40
2009-11-30 08:42:04 51°19.482 2°54.301 8.1 2 6 99400 40
2009-11-30 08:42:10 51°19.487 2°54.33 8.2 360 6 99400 40
2009-11-30 08:42:13 51°19.49 2°54.346 7 1 6 99400 40
2009-11-30 08:42:19 51°19.497 2°54.375 7.8 358 6 99400 40
2009-11-30 08:42:23 51°19.5 2°54.394 7.9 358 5.9 99400 39
2009-11-30 08:42:29 51°19.507 2°54.425 7.4 3 5.9 99400 39
2009-11-30 08:42:33 51°19.511 2°54.444 7.1 1 5.9 99410 40
2009-11-30 08:42:39 51°19.517 2°54.474 6.5 1 5.9 99410 40
2009-11-30 08:42:43 51°19.521 2°54.493 6.9 359 6 99420 40
2009-11-30 08:42:48 51°19.527 2°54.519 8 360 6 99420 40
2009-11-30 08:42:53 51°19.532 2°54.543 8.3 2 5.9 99410 39
2009-11-30 08:42:59 51°19.539 2°54.572 7.9 -999 5.9 99410 39
2009-11-30 08:43:03 51°19.544 2°54.591 8.4 3 5.9 99410 39
2009-11-30 08:43:08 51°19.55 2°54.616 6.9 5 5.9 99410 39
2009-11-30 08:43:13 51°19.555 2°54.641 7 2 6 99410 38
2009-11-30 08:43:19 51°19.562 2°54.67 7.3 8 6 99410 38
2009-11-30 08:43:23 51°19.567 2°54.69 7.7 8 6 99400 40
2009-11-30 08:43:28 51°19.572 2°54.714 6.8 3 6 99400 40
2009-11-30 08:43:33 51°19.577 2°54.738 6.4 4 6 99400 40
2009-11-30 08:43:39 51°19.584 2°54.768 8.7 -999 6 99400 40
2009-11-30 08:43:43 51°19.588 2°54.788 9.1 -999 6 99400 40
2009-11-30 08:43:49 51°19.594 2°54.818 8.2 1 6 99400 40
2009-11-30 08:43:53 51°19.599 2°54.837 8 4 6 99410 38
2009-11-30 08:43:58 51°19.603 2°54.862 8.7 -999 6 99410 38
2009-11-30 08:44:04 51°19.611 2°54.892 7.9 2 6 99410 38
2009-11-30 08:44:08 51°19.615 2°54.911 8 3 6 99410 38
2009-11-30 08:44:13 51°19.619 2°54.936 8 2 6 99410 37
2009-11-30 08:44:19 51°19.626 2°54.966 7.1 7 6 99410 37
2009-11-30 08:44:24 51°19.632 2°54.991 6.1 5 6 99400 40
2009-11-30 08:44:28 51°19.635 2°55.01 6.2 6 6 99400 40
2009-11-30 08:44:33 51°19.641 2°55.036 6.8 1 5.9 99400 40
2009-11-30 08:44:37 51°19.645 2°55.056 8 4 5.9 99400 40
2009-11-30 08:44:43 51°19.651 2°55.085 7.3 3 5.9 99400 38
2009-11-30 08:44:49 51°19.658 2°55.115 7.4 4 5.9 99400 38
2009-11-30 08:44:53 51°19.663 2°55.134 6.9 4 5.9 99410 40
2009-11-30 08:44:59 51°19.669 2°55.164 7 5 5.9 99410 40
2009-11-30 08:45:04 51°19.674 2°55.19 7.9 2 5.9 99410 38
2009-11-30 08:45:09 51°19.68 2°55.214 7.9 7 5.9 99410 38
2009-11-30 08:45:13 51°19.684 2°55.234 8.2 5 5.9 99410 40
2009-11-30 08:45:19 51°19.691 2°55.263 7.7 6 5.9 99410 40
2009-11-30 08:45:23 51°19.695 2°55.284 6.7 7 5.9 99410 38
2009-11-30 08:45:29 51°19.701 2°55.313 7.1 1 5.9 99410 38
2009-11-30 08:45:33 51°19.706 2°55.333 7.2 2 5.9 99410 39
2009-11-30 08:45:39 51°19.713 2°55.362 7.1 3 5.9 99410 39
2009-11-30 08:45:43 51°19.717 2°55.382 8 1 5.9 99410 38
2009-11-30 08:45:48 51°19.723 2°55.406 7.4 1 5.9 99410 38
2009-11-30 08:45:53 51°19.728 2°55.431 8.1 -999 6 99410 38
2009-11-30 08:45:58 51°19.734 2°55.456 7.6 4 6 99410 38
2009-11-30 08:46:03 51°19.739 2°55.481 6.5 6 6 99400 40
2009-11-30 08:46:08 51°19.746 2°55.505 7.8 3 6 99400 40
2009-11-30 08:46:13 51°19.749 2°55.531 7.4 2 6 99410 39
2009-11-30 08:46:19 51°19.757 2°55.56 7.7 4 6 99410 39
2009-11-30 08:46:24 51°19.762 2°55.585 7.7 3 6 99410 39
2009-11-30 08:46:28 51°19.767 2°55.604 7.5 4 6 99410 39
2009-11-30 08:46:33 51°19.772 2°55.629 7.4 2 6 99410 39
2009-11-30 08:46:39 51°19.78 2°55.658 9 359 6 99410 39
2009-11-30 08:46:44 51°19.785 2°55.683 8.7 360 6 99410 38
2009-11-30 08:46:48 51°19.789 2°55.703 7.8 359 6 99410 38
2009-11-30 08:46:53 51°19.796 2°55.727 7.7 357 6 99410 39
2009-11-30 08:46:58 51°19.801 2°55.752 6.6 -999 6 99410 39
2009-11-30 08:47:03 51°19.806 2°55.777 7 4 6 99410 38
2009-11-30 08:47:08 51°19.813 2°55.801 6.5 5 6 99410 38
2009-11-30 08:47:13 51°19.819 2°55.826 7.2 5 6 99400 38
2009-11-30 08:47:18 51°19.824 2°55.851 7.6 2 6 99400 38
2009-11-30 08:47:23 51°19.83 2°55.875 7 4 5.9 99400 40
2009-11-30 08:47:29 51°19.836 2°55.906 6.7 4 5.9 99400 40
2009-11-30 08:47:33 51°19.841 2°55.925 7 3 5.9 99400 40
2009-11-30 08:47:38 51°19.846 2°55.95 7.5 359 5.9 99400 40
2009-11-30 08:47:43 51°19.852 2°55.975 7.5 1 6 99390 40
2009-11-30 08:47:48 51°19.857 2°56.001 7.3 1 6 99390 40
2009-11-30 08:47:53 51°19.862 2°56.026 6.5 1 6 99400 39
2009-11-30 08:47:58 51°19.868 2°56.051 8 359 6 99400 39
2009-11-30 08:48:03 51°19.873 2°56.076 8 1 6 99400 40
2009-11-30 08:48:08 51°19.878 2°56.102 8 -999 6 99400 40
2009-11-30 08:48:13 51°19.884 2°56.126 7.6 4 6 99410 39
2009-11-30 08:48:18 51°19.889 2°56.152 7.5 4 6 99410 39
2009-11-30 08:48:23 51°19.895 2°56.176 8.3 1 5.9 99410 39
2009-11-30 08:48:28 51°19.899 2°56.202 6.8 4 5.9 99410 39
2009-11-30 08:48:33 51°19.906 2°56.227 6.2 5 6 99400 39
2009-11-30 08:48:37 51°19.91 2°56.247 6.6 10 6 99400 39